Location: Poughquag
(41.6090°N, 73.6820°W)
Time: 02:45:04
(UTC-04:00)

Vanguard 2 Rocket - Pass Details

Date: 06 June 2020
Orbit: 556 x 3324 km, 32.9° (Epoch: 06 July)

Event Time Altitude Azimuth Distance (km) Brightness Sun altitude
Rises 20:47:13 0° 267° (W) 5,173 11.7 -4.1°
Reaches altitude 10° 20:51:43 10° 250° (WSW) 4,643 11.0 -4.7°
Maximum altitude 21:00:07 19° 212° (SSW) 4,645 10.4 -6.0°
Drops below altitude 10° 21:10:46 10° 176° (S) 6,003 10.7 -7.5°
Sets 21:18:09 0° 161° (SSE) 7,251 11.0 -8.6°
